Dewpoint
36 35 40 41 40 42 44 47 47 49 52 52 53 54 56 59 60 62 66 68 70 70 70 69 69 67 66 67 66 65 66 64
37 33 35 39 38 40 39 43 45 48 52 54 53 53 54 55 57 59 61 64 68 70 69 69 69 68 67 67 66 66 66 64
36 34 33 38 35 39 41 41 42 47 45 45 50 53 53 54 54 56 57 59 62 68 69 69 69 68 67 66 66 67 66 65
35 34 32 35 34 37 40 39 40 45 44 44 46 48 49 53 53 54 55 56 58 61 67 68 68 68 68 67 67 66 65 63
34 35 31 33 36 33 37 39 40 42 43 43 43 45 45 48 50 52 54 54 54 56 63 68 68 68 67 67 67 65 65 64
32 33 30 33 36 30 35 37 40 41 41 42 41 42 42 44 47 49 52 54 53 54 56 65 67 67 67 67 66 65 65 65
30 30 30 33 31 31 33 35 36 40 41 40 41 41 40 42 44 46 48 49 52 53 54 56 66 67 67 66 66 65 65 65
30 29 31 33 30 31 34 34 35 39 40 40 39 39 39 40 41 43 45 46 48 53 53 55 63 66 66 66 65 65 64 64
30 29 31 31 31 31 34 33 35 38 40 39 38 38 38 37 39 40 42 44 46 48 50 53 62 65 65 65 65 64 64 62
29 30 31 30 30 31 33 33 35 35 38 37 36 37 38 36 37 38 39 42 44 45 46 49 52 63 63 64 64 64 64 63
28 29 30 30 30 31 33 34 35 33 36 35 34 37 37 34 35 36 38 40 42 42 44 47 47 54 61 62 62 63 63 63
28 29 30 30 30 31 31 33 35 34 31 34 33 35 35 35 33 34 36 38 39 40 41 43 46 50 59 61 61 61 62 62
29 28 29 29 29 30 29 30 33 33 31 34 31 32 33 34 36 32 34 36 37 39 40 40 43 46 51 58 59 60 60 63
28 28 29 29 30 31 31 32 33 33 31 32 31 31 31 32 33 33 33 35 36 36 39 37 40 43 44 50 53 56 58 60
28 28 29 29 30 31 30 33 33 31 31 29 30 30 29 30 30 30 32 35 35 35 37 37 36 39 42 42 51 51 54 58
29 28 29 29 30 30 31 31 30 31 30 30 30 29 29 29 29 29 31 36 34 35 35 36 37 36 39 43 43 44 53 52
29 28 29 29 30 31 31 29 30 30 29 29 28 28 27 27 31 29 29 34 34 34 35 34 36 36 37 39 41 43 48 54
28 28 28 29 29 31 30 28 27 26 26 27 29 29 27 28 30 29 28 30 32 31 31 33 34 36 37 38 39 41 44 46
29 27 27 28 29 31 30 28 28 27 27 28 29 30 29 30 33 34 32 31 33 34 31 31 34 35 36 37 39 40 42 44
27 27 27 27 29 32 28 30 29 29 28 29 30 30 32 33 34 34 34 35 35 32 29 31 32 34 35 37 38 40 42 44
Wind_Speed
21 24 25 26 32 34 34 32 32 29 28 32 30 28 29 29 27 25 22 18 16 16 16 17 18 18 17 18 18 19 7 7
18 24 22 20 19 30 34 32 33 34 28 32 31 28 29 28 26 26 24 26 19 18 19 18 20 20 18 21 19 16 13 11
17 21 23 21 22 21 21 27 30 29 30 32 27 23 23 24 25 26 25 26 27 19 20 21 20 20 19 17 18 12 15 15
18 18 22 19 22 21 17 17 17 17 20 23 21 20 23 25 22 26 26 25 25 26 21 21 19 11 13 11 13 14 12 15
19 19 20 19 19 19 17 15 14 13 17 20 20 19 20 20 20 18 19 21 17 20 18 13 13 13 11 13 12 15 15 16
17 18 20 20 17 17 18 17 16 13 14 18 19 18 21 21 19 19 20 16 17 17 15 16 13 15 15 13 14 15 15 16
17 19 19 17 20 18 18 18 17 14 14 17 17 17 19 20 20 21 20 22 17 20 17 19 17 16 14 15 16 17 17 16
13 17 18 17 19 19 17 18 19 15 12 15 18 17 17 18 20 18 17 20 22 19 18 20 19 17 16 17 15 16 18 18
15 16 17 19 17 18 16 18 17 15 14 17 19 18 17 20 17 21 21 20 19 20 22 25 16 13 17 17 15 15 16 20
16 14 14 15 16 16 17 17 14 15 12 15 20 19 18 18 18 19 23 20 17 20 22 21 24 10 10 13 13 12 15 17
13 13 13 14 13 13 15 15 13 14 14 16 21 19 20 18 18 19 23 20 19 20 18 18 13 10 6 6 5 6 13 14
10 10 11 12 11 10 11 12 11 11 16 15 19 19 21 19 17 20 21 20 21 18 21 20 18 17 13 2 4 0 1 12
8 11 9 11 11 15 16 16 11 12 13 11 16 17 20 20 19 20 19 20 22 22 17 22 18 20 10 6 2 7 5 8
9 11 9 11 10 9 7 12 6 10 13 13 16 14 18 17 19 19 18 17 19 23 21 18 12 17 10 11 7 4 7 14
7 10 8 11 13 10 10 6 6 12 16 17 16 14 17 18 19 19 18 15 16 19 20 18 18 15 12 7 1 7 5 9
7 10 9 10 13 14 12 12 12 10 14 16 15 16 18 17 19 18 17 14 16 15 19 20 15 18 12 9 9 8 4 9
7 10 11 12 13 11 10 12 7 7 11 15 14 16 17 18 17 18 17 15 15 16 17 20 17 15 15 15 16 16 17 4
8 10 11 12 13 8 10 12 12 13 14 16 15 15 15 16 17 17 17 16 16 16 18 17 18 17 14 13 12 7 10 9
9 11 12 12 14 6 9 9 10 13 13 13 17 17 16 17 18 18 16 17 17 14 18 16 16 16 17 13 12 12 15 14
10 10 10 13 13 4 13 11 12 14 14 12 13 15 17 18 17 18 19 19 15 16 16 15 15 16 16 14 13 13 13 14
Wind_Direction
16 13 10 6 13 16 14 11 8 8 11 5 5 2 3 1 3 356 333 240 224 223 218 208 210 194 200 189 185 186 164 169
16 15 10 4 5 11 13 11 11 10 8 10 5 2 0 2 359 357 349 343 236 222 219 213 209 209 204 191 192 163 156 154
16 15 8 2 6 1 3 11 14 19 18 9 5 358 351 357 356 351 353 349 339 241 222 217 214 218 203 204 185 165 166 160
18 11 5 4 6 360 352 359 11 19 18 13 4 358 353 353 351 357 349 350 343 343 235 220 211 213 219 201 186 164 173 179
20 9 6 5 5 -0 358 351 1 13 18 15 8 2 356 356 345 357 345 348 346 335 312 224 213 201 215 187 202 169 172 186
23 14 8 10 6 2 353 356 354 5 17 19 14 7 1 356 346 353 336 337 345 336 323 274 213 212 193 199 192 180 184 185
24 17 16 17 7 3 358 352 350 2 18 17 15 8 5 356 350 358 342 340 339 328 321 321 216 210 196 199 191 189 180 178
25 19 22 22 9 3 356 353 351 4 20 15 15 9 4 -0 355 347 329 343 342 301 328 310 263 202 202 197 197 191 173 182
23 21 27 24 13 5 358 358 359 12 16 9 8 3 1 360 360 351 345 337 324 335 360 313 284 203 199 199 201 186 184 187
23 20 29 21 16 5 358 356 3 9 20 7 2 358 351 356 355 355 344 336 340 349 2 317 324 188 193 195 202 182 184 201
27 23 29 17 12 4 359 356 9 6 11 9 357 354 348 353 353 352 352 343 347 350 337 333 329 339 176 154 135 217 194 190
23 23 29 17 8 1 3 3 11 13 4 13 2 353 351 347 351 353 355 348 347 350 347 339 336 334 293 169 196 271 351 193
17 22 22 22 11 5 4 360 9 6 357 358 2 357 353 353 359 351 353 358 347 346 353 348 347 355 296 213 186 241 232 227
12 20 24 20 12 353 340 343 360 353 344 345 348 355 356 352 353 346 351 354 351 350 349 354 329 339 4 291 191 206 233 221
8 15 24 19 10 359 357 12 352 358 355 349 343 349 355 354 353 350 348 351 354 353 347 349 338 342 0 301 231 201 157 215
13 17 23 16 11 13 33 28 15 353 348 337 334 351 355 349 351 350 346 346 353 354 349 341 338 337 359 342 312 310 231 211
9 23 26 15 12 28 51 29 2 336 340 333 335 355 353 346 347 349 349 344 345 354 350 347 337 332 333 335 330 332 270 180
25 36 23 14 9 44 42 14 359 357 349 347 341 339 349 341 337 347 349 348 348 355 354 342 335 331 329 330 313 317 321 352
39 36 22 5 11 55 7 348 342 340 335 340 338 336 334 341 342 337 337 341 348 357 352 340 329 328 325 315 300 288 292 299
47 34 19 2 22 43 356 338 324 322 315 336 336 334 328 331 340 339 345 344 353 3 344 337 332 325 322 311 311 293 288 292